User: anonymous   Login
Location: *
(2.5500°S, 65.9667°W)
Time: 03:21:31
(UTC+00:00)
Language:

BLOCK DM-SL R/B - Orbit

View from above orbital plane
View from above orbital plane
View from above satellite
View from above satellite

Ground track
Ground track

The orbit data is extracted from the following two-line orbital elements,

1 26725U 01012B   22019.76385866 -.00000146  00000-0 -18183-2 0  9995
2 26725   0.4600 211.8526 7066888  91.6130 240.6785  2.23579578170280
Epoch (UTC): 19 January 2022 18:19:57
Eccentricity: 0.7066888
inclination: 0.4600°
perigee height: 868 km
apogee height: 35785 km
right ascension of ascending node: 211.8526°
argument of perigee: 91.6130°
revolutions per day: 2.23579578
mean anomaly at epoch: 240.6785°
orbit number at epoch: 17028

The dashed part of the orbit path shows where the satellite is in the earth's shadow,  

DLR